Weather History for Tel Aviv, Israel

Change the Weather History Date:

Monday, September 23, 2013

  Actual Average Record
Temperature  
Mean Temperature 80 °F -  
Max Temperature 87 °F 82 °F 89 °F (1999)
Min Temperature 72 °F 65 °F 68 °F (1996)
Cooling Degree Days 14    
Growing Degree Days 30 (Base 50)    
Moisture  
Dew Point 62 °F    
Average Humidity 59    
Maximum Humidity 78    
Minimum Humidity 37    
Precipitation  
Precipitation 0.00 in - - ()
Sea Level Pressure  
Sea Level Pressure 29.83 in    
Wind  
Wind Speed 7 mph ()    
Max Wind Speed 16 mph    
Max Gust Speed -    
Visibility 6.2 miles    
Events      
Averages and records for this station are not official NWS values.
T = Trace of Precipitation, MM = Missing Value Source: Averaged Metar Reports

Daily Weather History Graph

Daily Weather History Graph

Search for Another Location

Airport:

Trip Planner

Search our weather history database for the weather conditions in past years. The results will help you decide how hot, cold, wet, or windy it might be!

Date:

Astronomy

Sep. 23, 2013 Rise Set
Actual Time 6:29 AM IDT 6:35 PM IDT
Civil Twilight 6:04 AM IDT 7:00 PM IDT
Nautical Twilight 5:36 AM IDT 7:28 PM IDT
Astronomical Twilight 5:07 AM IDT 7:57 PM IDT
Moon 9:09 PM IDT (9/23) 10:12 AM IDT (9/23)
Length of Visible Light 12h 55m
Length of Day
12h 06m
Waning Gibbous, 84% of the Moon is Illuminated
Sep 23
Waning Gibbous
Sep 27
Last Quarter
Oct 5
New
Oct 12
First Quarter
Oct 19
Full

Hourly Weather History & Observations

Time (IDT) Temp. Heat Index Dew Point Humidity Pressure Visibility Wind Dir Wind Speed Gust Speed Precip Events Conditions
12:20 AM 75.2 °F - 64.4 °F 69% 29.83 in 6.2 mi SSE 6.9 mph - N/A   Partly Cloudy
12:50 AM 73.4 °F - 64.4 °F 73% 29.83 in - South 4.6 mph - N/A   Clear
1:20 AM 75.2 °F - 64.4 °F 69% 29.83 in 6.2 mi South 4.6 mph - N/A   Partly Cloudy
1:50 AM 75.2 °F - 64.4 °F 69% 29.83 in 6.2 mi SSE 6.9 mph - N/A   Partly Cloudy
2:20 AM 75.2 °F - 64.4 °F 69% 29.83 in 6.2 mi SSE 4.6 mph - N/A   Partly Cloudy
2:50 AM 73.4 °F - 64.4 °F 73% 29.80 in 6.2 mi SSE 4.6 mph - N/A   Partly Cloudy
3:00 AM 74 °F - 65 °F 66% 29.82 in 6 mi SSE 4.6 mph - -   Scattered Clouds
3:20 AM 73.4 °F - 64.4 °F 73% 29.80 in 6.2 mi South 4.6 mph - N/A   Scattered Clouds
3:50 AM 73.4 °F - 64.4 °F 73% 29.80 in 6.2 mi SSE 4.6 mph - N/A   Partly Cloudy
4:20 AM 73.4 °F - 64.4 °F 73% 29.80 in 6.2 mi Variable 3.5 mph - N/A   Partly Cloudy
4:50 AM 73.4 °F - 64.4 °F 73% 29.80 in 6.2 mi Variable 3.5 mph - N/A   Partly Cloudy
5:20 AM 75.2 °F - 64.4 °F 69% 29.80 in 6.2 mi SE 8.1 mph - N/A   Partly Cloudy
5:50 AM 73.4 °F - 64.4 °F 73% 29.80 in 6.2 mi Variable 2.3 mph - N/A   Scattered Clouds
6:20 AM 73.4 °F - 64.4 °F 73% 29.80 in 6.2 mi South 4.6 mph - N/A   Scattered Clouds
6:50 AM 73.4 °F - 64.4 °F 73% 29.80 in 6.2 mi SW 4.6 mph - N/A   Scattered Clouds
7:20 AM 73.4 °F - 66.2 °F 78% 29.83 in 6.2 mi South 4.6 mph - N/A   Scattered Clouds
7:50 AM 75.2 °F - 66.2 °F 73% 29.83 in 6.2 mi South 9.2 mph - N/A   Scattered Clouds
8:20 AM 77.0 °F - 66.2 °F 69% 29.83 in 6.2 mi South 8.1 mph - N/A   Partly Cloudy
8:50 AM 78.8 °F - 68.0 °F 69% 29.83 in 6.2 mi SSW 6.9 mph - N/A   Partly Cloudy
9:00 AM 78 °F - 67 °F 60% 29.84 in 6 mi SSW 6.9 mph - -   Scattered Clouds
9:20 AM 80.6 °F 82.7 °F 66.2 °F 61% 29.83 in 6.2 mi WSW 5.8 mph - N/A   Scattered Clouds
9:50 AM 80.6 °F 81.8 °F 62.6 °F 54% 29.83 in 6.2 mi West 9.2 mph - N/A   Scattered Clouds
10:20 AM 80.6 °F 81.8 °F 62.6 °F 54% 29.83 in 6.2 mi West 12.7 mph - N/A   Scattered Clouds
10:50 AM 82.4 °F 83.4 °F 62.6 °F 51% 29.86 in 6.2 mi West 11.5 mph - N/A   Scattered Clouds
11:20 AM 84.2 °F 83.8 °F 59.0 °F 42% 29.86 in 6.2 mi West 11.5 mph - N/A   Scattered Clouds
11:50 AM 84.2 °F 85.0 °F 62.6 °F 48% 29.86 in 6.2 mi West 10.4 mph - N/A   Scattered Clouds
12:20 PM 84.2 °F 83.5 °F 57.2 °F 40% 29.83 in 6.2 mi West 12.7 mph - N/A   Partly Cloudy
12:50 PM 84.2 °F 84.4 °F 60.8 °F 45% 29.83 in 6.2 mi West 11.5 mph - N/A   Partly Cloudy
1:20 PM 84.2 °F 84.4 °F 60.8 °F 45% 29.83 in 6.2 mi West 13.8 mph - N/A   Partly Cloudy
1:50 PM 84.2 °F 84.4 °F 60.8 °F 45% 29.83 in 6.2 mi West 15.0 mph - N/A   Partly Cloudy
2:20 PM 84.2 °F 84.4 °F 60.8 °F 45% 29.83 in 6.2 mi West 15.0 mph - N/A   Partly Cloudy
2:50 PM 82.4 °F 82.9 °F 60.8 °F 48% 29.83 in 6.2 mi WNW 15.0 mph - N/A   Partly Cloudy
3:00 PM 83 °F - 61 °F 37% 29.82 in 6 mi WNW 15.0 mph - -   Scattered Clouds
3:20 PM 82.4 °F 82.9 °F 60.8 °F 48% 29.80 in 6.2 mi WNW 15.0 mph - N/A   Partly Cloudy
3:50 PM 82.4 °F 82.9 °F 60.8 °F 48% 29.80 in 6.2 mi West 16.1 mph - N/A   Partly Cloudy
4:20 PM 82.4 °F 82.9 °F 60.8 °F 48% 29.83 in 6.2 mi West 16.1 mph - N/A   Scattered Clouds
4:50 PM 80.6 °F 81.5 °F 60.8 °F 51% 29.83 in 6.2 mi WNW 15.0 mph - N/A   Scattered Clouds
5:20 PM 80.6 °F 81.5 °F 60.8 °F 51% 29.83 in 6.2 mi West 15.0 mph - N/A   Scattered Clouds
5:50 PM 80.6 °F 81.5 °F 60.8 °F 51% 29.83 in 6.2 mi West 13.8 mph - N/A   Scattered Clouds
6:20 PM 78.8 °F - 60.8 °F 54% 29.83 in 6.2 mi West 11.5 mph - N/A   Scattered Clouds
6:50 PM 78.8 °F - 60.8 °F 54% 29.83 in 6.2 mi West 11.5 mph - N/A   Scattered Clouds
7:20 PM 78.8 °F - 60.8 °F 54% 29.83 in 6.2 mi West 8.1 mph - N/A   Scattered Clouds
7:50 PM 78.8 °F - 60.8 °F 54% 29.86 in 6.2 mi West 9.2 mph - N/A   Scattered Clouds
8:20 PM 77.0 °F - 62.6 °F 61% 29.86 in 6.2 mi West 9.2 mph - N/A   Scattered Clouds
8:50 PM 77.0 °F - 60.8 °F 57% 29.86 in 6.2 mi West 9.2 mph - N/A   Scattered Clouds
9:00 PM 77 °F - 61 °F 48% 29.87 in 6 mi West 9.2 mph - -   Partly Cloudy
9:20 PM 77.0 °F - 60.8 °F 57% 29.86 in 6.2 mi West 6.9 mph - N/A   Partly Cloudy
9:50 PM 77.0 °F - 60.8 °F 57% 29.86 in 6.2 mi WSW 4.6 mph - N/A   Partly Cloudy
10:20 PM 77.0 °F - 59.0 °F 54% 29.86 in 6.2 mi Variable 3.5 mph - N/A   Scattered Clouds
10:50 PM 77.0 °F - 59.0 °F 54% 29.86 in 6.2 mi WSW 6.9 mph - N/A   Partly Cloudy
11:20 PM 77.0 °F - 59.0 °F 54% 29.86 in 6.2 mi WSW 4.6 mph - N/A   Scattered Clouds
11:50 PM 75.2 °F - 59.0 °F 57% 29.86 in 6.2 mi WSW 4.6 mph - N/A   Partly Cloudy